Weather History for PAIK - March, 2014

Change the Weather History Date:

Saturday, March 22, 2014

  Actual Average Record
Temperature  
Mean Temperature 17 °F -  
Max Temperature 16 °F - - ()
Min Temperature 1 °F - - ()
Degree Days  
Heating Degree Days 48    
Moisture  
Dew Point 4 °F    
Average Humidity 64    
Maximum Humidity 91    
Minimum Humidity 32    
Precipitation  
Precipitation 0.00 in - - ()
Sea Level Pressure  
Sea Level Pressure 30.80 in    
Wind  
Wind Speed 4 mph (North)    
Max Wind Speed 12 mph    
Max Gust Speed -    
Visibility 10 miles    
Events      
T = Trace of Precipitation, MM = Missing Value Source: NWS Daily Summary

Daily Weather History Graph

Daily Weather History Graph

Search for Another Location

Airport or City:

Trip Planner

Search our weather history database for the weather conditions in past years. The results will help you decide how hot, cold, wet, or windy it might be!

Date:

Astronomy

Mar. 22, 2014 Rise Set
Actual Time 8:32 AM AKDT 9:06 PM AKDT
Civil Twilight 7:38 AM AKDT 10:00 PM AKDT
Nautical Twilight 6:31 AM AKDT 11:08 PM AKDT
Astronomical Twilight 5:08 AM AKDT 12:34 AM AKDT
Moon 4:59 AM AKDT (3/22) 10:02 AM AKDT (3/22)
Length of Visible Light 14h 21m
Length of Day
12h 33m
Waning Gibbous, 64% of the Moon is Illuminated
Mar 22
Waning Gibbous
Mar 23
Last Quarter
Mar 30
New
Apr 7
First Quarter
Apr 14
Full

Hourly Weather History & Observations

Time (AKDT) Temp. Windchill Dew Point Humidity Pressure Visibility Wind Dir Wind Speed Gust Speed Precip Events Conditions
12:01 AM 14.0 °F 3.9 °F 6.1 °F 71% 30.79 in 10.0 mi NNW 6.9 mph - N/A   Clear
1:01 AM 12.0 °F - 6.1 °F 77% 30.79 in 10.0 mi Calm Calm - N/A   Clear
2:01 AM 10.9 °F - 5.0 °F 77% 30.79 in 10.0 mi Calm Calm - N/A   Clear
3:01 AM 7.0 °F -6.6 °F 1.9 °F 80% 30.79 in 10.0 mi NNW 9.2 mph - N/A   Clear
4:01 AM 5.0 °F -2.1 °F 1.0 °F 84% 30.80 in 10.0 mi NNE 3.5 mph - N/A   Clear
5:01 AM 3.0 °F -8.0 °F -0.9 °F 84% 30.81 in 10.0 mi NE 5.8 mph - N/A   Clear
6:01 AM 7.0 °F - 3.9 °F 87% 30.80 in 10.0 mi Calm Calm - N/A   Clear
7:01 AM 1.9 °F -9.2 °F -2.9 °F 80% 30.81 in 10.0 mi North 5.8 mph - N/A   Clear
8:01 AM 1.9 °F -14.7 °F -0.0 °F 91% 30.81 in 10.0 mi North 11.5 mph - N/A   Clear
9:01 AM 3.9 °F -5.3 °F -0.0 °F 84% 30.81 in 10.0 mi Variable 4.6 mph - N/A   Clear
10:01 AM 5.0 °F - -2.0 °F 73% 30.82 in 10.0 mi Calm Calm - N/A   Clear
11:01 AM 12.0 °F 4.1 °F 3.0 °F 67% 30.82 in 10.0 mi North 4.6 mph - N/A   Clear
12:01 PM 15.1 °F - 3.9 °F 61% 30.82 in 10.0 mi Calm Calm - N/A   Clear
1:01 PM 19.9 °F - 6.1 °F 55% 30.82 in 10.0 mi Calm Calm - N/A   Clear
2:01 PM 23.0 °F - 7.0 °F 50% 30.82 in 10.0 mi Calm Calm - N/A   Clear
3:01 PM 26.1 °F 20.5 °F 8.1 °F 47% 30.81 in 10.0 mi NW 4.6 mph - N/A   Clear
4:01 PM 28.9 °F - 8.1 °F 41% 30.79 in 10.0 mi Calm Calm - N/A   Clear
5:01 PM 33.1 °F - 6.1 °F 32% 30.79 in 10.0 mi Calm Calm - N/A   Clear
6:01 PM 28.9 °F 25.2 °F 8.1 °F 41% 30.79 in 10.0 mi NNW 3.5 mph - N/A   Clear
7:01 PM 30.0 °F 23.2 °F 8.1 °F 40% 30.78 in 10.0 mi NNW 6.9 mph - N/A   Clear
8:01 PM 27.0 °F 23.0 °F 8.1 °F 45% 30.78 in 10.0 mi NNW 3.5 mph - N/A   Clear
9:01 PM 21.0 °F - 7.0 °F 55% 30.79 in 10.0 mi Calm Calm - N/A   Clear
10:01 PM 21.0 °F 13.4 °F 8.1 °F 57% 30.79 in 10.0 mi NNW 5.8 mph - N/A   Clear
11:01 PM 21.9 °F 13.4 °F 8.1 °F 55% 30.79 in 10.0 mi North 6.9 mph - N/A   Clear